Location: Rowland
(34.5359°N, 79.2929°W)
Time: 16:51:23
(UTC+00:00)

A-11 Canister half - Pass Details

Date: 07 October 2022
Orbit: 1515 x 1684 km, 47.2° (Epoch: 06 December)

Event Time Altitude Azimuth Distance (km) Brightness Sun altitude
Rises 23:32:03 0° 224° (SW) 4,893 12.4 -8.9°
Reaches altitude 10° 23:35:14 10° 222° (SW) 3,891 11.8 -9.5°
Maximum altitude 23:45:08 74° 139° (SE) 1,666 9.1 -11.6°
Drops below altitude 10° 23:54:42 10° 57° (ENE) 3,771 10.6 -13.5°
Enters shadow 23:55:20 - 57° (ENE) 3,969 10.7 -13.7°
